[[{"header":{"parameterUnit":"m.s-1","parameterCategory":1,"la1":30.2991,"la2":30.254,"lo1":-89.0895,"lo2":-89.0444,"dy":0.0017,"dx":0.0017,"nx":28,"ny":28,"refTime":"2024-06-29T21:00:00:Z","depth":0,"parameterNumber":2,"parameterNumberName":"U-component_of_WINDS"},"data":[0,0,0,0,0,0,0,0,0,0,0,0,0,0,0,0,0,0,0,0,0,0,0,0,0,0,0,0,0,0,0,0,0,0,0,0,0,0,0,0,0,0,0,0,0,0,0,0,0,0,0,0,0,0,0,0,0,0,1.0802,1.0804,0,1.094,1.0941,1.0943,1.0897,1.0894,1.0891,1.0888,1.1031,1.1037,1.1044,0,0,0,0,0,0,0,0,0,0,0,0,0,1.0501,1.0507,1.0802,1.0804,1.0805,1.094,1.0941,1.0943,1.0897,1.0894,1.089,1.0887,1.1029,1.1037,1.1045,0,0,0,0,0,0,0,0,0,0,0,0,0,1.0635,1.0509,1.0802,1.0799,1.08,1.0939,1.0941,1.0944,1.0898,1.0894,1.0889,1.0885,1.1026,1.1036,1.1046,1.1197,0,0,1.1076,1.108,0,0,0,0,0,0,0,0,1.0627,1.0646,1.0797,1.0799,1.0801,1.0896,1.0888,1.1029,1.0899,1.0861,1.0888,1.0883,1.099,1.1003,1.1038,1.1204,1.121,1.1077,1.1083,1.1087,1.109,0,0,0,0,0,0,0,1.0618,1.064,1.0857,1.08,1.0802,1.0791,1.0805,1.0914,1.0949,1.0864,1.0861,1.0878,1.099,1.1029,1.1041,1.1212,1.1077,1.1085,1.1092,1.1095,1.1508,1.1513,0,0,0,0,0,0,1.0608,1.0632,1.0852,1.0861,1.0701,1.08,1.0816,1.087,1.0948,1.0955,1.0881,1.0875,1.1014,1.103,1.1046,1.1228,1.1087,1.1096,1.1102,1.1503,1.151,1.1515,0,0,0,0,0,0,1.0601,1.0628,1.0847,1.0746,1.0773,1.081,1.0872,1.0875,1.0914,1.0961,1.0967,1.0915,1.1011,1.1032,1.116,1.1233,1.1101,1.111,1.1498,1.1505,1.1512,1.1594,0,0,0,0,0,0,1.0593,1.0626,1.0683,1.0747,1.0778,1.0957,1.0876,1.0881,1.0931,1.0924,1.0994,1.1001,1.1009,1.1145,1.117,1.1244,1.1118,1.1491,1.1501,1.151,1.1585,1.1603,1.1619,0,0,0,0,0,1.0582,1.0701,1.0686,1.0713,1.0851,1.0962,1.0979,1.0986,1.0937,1.0995,1.1026,1.0999,1.1221,1.1159,1.1186,1.1264,1.1487,1.1498,1.1509,1.1577,1.16,1.1619,0,0,0,0,0,0,1.0645,1.0709,1.0694,1.0836,1.0894,1.0954,1.1027,1.101,1.1083,1.1073,1.1079,1.1095,1.1226,1.1258,1.1187,1.1415,1.1347,1.1364,1.1389,1.1411,1.1428,1.1417,1.1126,0,0,0,0,0,1.0675,1.0759,1.0811,1.0932,1.0962,1.099,1.1038,1.1039,1.1098,1.1123,1.1162,1.1222,1.1305,1.136,1.1439,1.1589,1.1604,1.1657,1.1674,1.1688,1.1703,1.1785,1.1809,1.1552,1.1552,1.1552,0,0,1.0738,1.0784,1.0837,1.0946,1.099,1.1078,1.101,1.1106,1.1171,1.1137,1.126,1.1291,1.1358,1.1498,1.1561,1.1528,1.1777,1.1702,1.1713,1.172,1.1799,1.1823,1.1844,1.156,1.1558,1.1557,0,0,1.0899,1.0942,1.1047,1.1093,1.1161,1.1179,1.1205,1.1268,1.1287,1.141,1.1386,1.1464,1.1608,1.1656,1.17,1.188,1.1858,1.1905,1.1995,1.2075,1.2095,1.2113,1.2176,1.2199,1.192,1.192,1.192,0,1.0969,1.1099,1.1104,1.1201,1.125,1.1223,1.1331,1.1375,1.1466,1.1501,1.1463,1.1642,1.1685,1.1836,1.188,1.1916,1.1945,1.1897,1.2091,1.2109,1.2126,1.2187,1.2211,1.1926,1.1925,1.1924,1.1924,0,1.1182,1.1273,1.1351,1.1438,1.1496,1.1598,1.1619,1.1677,1.1672,1.1694,1.182,1.1871,1.196,1.1996,1.1993,1.2147,1.2124,1.2089,1.202,1.2156,1.2213,1.2237,1.1933,1.1931,1.193,1.1928,0,0,1.1385,1.1474,1.1503,1.1542,1.1616,1.1687,1.1788,1.1874,1.1924,1.1988,1.2073,1.2195,1.2163,1.2212,1.2215,1.2285,1.2424,1.2241,1.2242,1.2273,1.2596,1.2622,1.2648,1.241,1.2414,1.2418,1.259,0,1.155,1.1727,1.1735,1.1897,1.1981,1.1957,1.2045,1.2101,1.2124,1.22,1.2226,1.2312,1.2263,1.2293,1.2362,1.2392,1.2489,1.238,1.2489,1.2493,1.2472,1.2678,1.2706,1.2866,1.2613,1.2616,1.2619,0,1.1767,1.1838,1.2008,1.207,1.2105,1.2184,1.2264,1.2337,1.2399,1.2412,1.2467,1.2459,1.2563,1.2492,1.2635,1.2561,1.2606,1.2628,1.2635,1.2645,1.2564,1.2693,1.2917,1.2941,1.2655,1.2652,1.2649,0,1.1897,1.2035,1.2154,1.2189,1.2265,1.2321,1.2355,1.2413,1.2464,1.2535,1.2568,1.265,1.2695,1.2759,1.2774,1.272,1.2917,1.2847,1.293,1.293,1.2972,1.2969,1.3206,1.3003,1.3002,1.3002,1.3001,0,1.2081,1.2186,1.2214,1.2287,1.2404,1.2412,1.2528,1.2558,1.261,1.2689,1.2674,1.2749,1.2764,1.2842,1.2854,1.2971,1.2992,1.3004,1.3006,1.3005,1.3004,1.3034,1.3023,1.3008,1.3007,1.3006,1.3005,0,1.2246,1.2268,1.2397,1.2458,1.2476,1.2559,1.2612,1.2683,1.2705,1.2805,1.2829,1.2864,1.2955,1.2977,1.3085,1.3093,1.3231,1.3223,1.321,1.3209,1.3291,1.3283,1.3555,1.3591,1.3366,1.3368,1.337,0,1.2361,1.2441,1.2511,1.2563,1.26,1.2683,1.2736,1.2748,1.2803,1.2881,1.2942,1.3032,1.3103,1.325,1.3286,1.3369,1.3361,1.3451,1.3374,1.337,1.3362,1.3357,1.3364,1.3466,1.3468,1.347,1.3472,0,1.2563,1.2571,1.2647,1.2728,1.2792,1.2856,1.2917,1.2961,1.2981,1.3044,1.3137,1.3193,1.3304,1.3393,1.3476,1.3511,1.3495,1.3496,1.3519,1.3519,1.3508,1.3514,1.325,1.3489,1.3488,1.3486,1.3485,1.3485,1.2706,1.2776,1.2837,1.2922,1.297,1.3028,1.3097,1.3128,1.3206,1.3296,1.3299,1.34,1.3461,1.3571,1.3612,1.3691,1.3663,1.3698,1.3706,1.3714,1.3721,1.3496,1.3707,1.3706,1.3706,1.3705,1.3705,0,1.2907,1.2945,1.3024,1.311,1.3178,1.3157,1.3224,1.3282,1.3371,1.3429,1.35,1.3607,1.3694,1.3736,1.3821,1.3877,1.3872,1.3899,1.3894,1.3903,1.3742,1.3712,1.3902,1.3902,1.3902,1.3902,1.3901,1.3901,1.3019,1.3137,1.3151,1.3292,1.333,1.3428,1.3468,1.3522,1.3568,1.3688,1.376,1.3787,1.3839,1.3928,1.4006,1.4016,1.4048,1.4079,1.4086,1.3934,1.3914,1.3895,1.3867,1.4086,1.4086,1.424,1.4241,1.4242]},{"header":{"parameterUnit":"m.s-1","parameterCategory":1,"la1":30.2991,"la2":30.254,"lo1":-89.0895,"lo2":-89.0444,"dy":0.0017,"dx":0.0017,"nx":28,"ny":28,"refTime":"2024-06-29T21:00:00:Z","depth":0,"parameterNumber":3,"parameterNumberName":"V-component_of_WINDS"},"data":[0,0,0,0,0,0,0,0,0,0,0,0,0,0,0,0,0,0,0,0,0,0,0,0,0,0,0,0,0,0,0,0,0,0,0,0,0,0,0,0,0,0,0,0,0,0,0,0,0,0,0,0,0,0,0,0,0,0,1.2882,1.2884,0,1.3091,1.3093,1.3095,1.2993,1.2987,1.2982,1.2977,1.32,1.321,1.3221,0,0,0,0,0,0,0,0,0,0,0,0,0,1.2399,1.2408,1.2882,1.2884,1.2887,1.309,1.3093,1.3096,1.2994,1.2987,1.2981,1.2974,1.3196,1.3209,1.3222,0,0,0,0,0,0,0,0,0,0,0,0,0,1.2608,1.2411,1.2881,1.286,1.286,1.309,1.3093,1.3097,1.2995,1.2987,1.2979,1.2971,1.3192,1.3208,1.3224,1.3489,0,0,1.3275,1.3282,0,0,0,0,0,0,0,0,1.2597,1.2626,1.2861,1.2862,1.2863,1.3007,1.3004,1.3229,1.2997,1.2944,1.2977,1.2967,1.3143,1.3163,1.322,1.3499,1.3509,1.3276,1.3286,1.3293,1.3298,0,0,0,0,0,0,0,1.2582,1.2617,1.2964,1.2864,1.2865,1.2842,1.2862,1.3046,1.3087,1.2948,1.2941,1.2967,1.3142,1.3205,1.3225,1.3512,1.3276,1.329,1.33,1.3307,1.4013,1.4022,0,0,0,0,0,0,1.2568,1.2605,1.2958,1.2971,1.2706,1.2857,1.288,1.2969,1.3085,1.3094,1.2974,1.2961,1.318,1.3206,1.3232,1.3546,1.3293,1.3308,1.3318,1.4004,1.4015,1.4025,0,0,0,0,0,0,1.2558,1.26,1.2949,1.2786,1.2829,1.2874,1.2975,1.2978,1.304,1.3104,1.3111,1.303,1.3175,1.3209,1.3424,1.3552,1.3316,1.3331,1.3994,1.4008,1.402,1.4178,0,0,0,0,0,0,1.2544,1.2597,1.2698,1.2789,1.2838,1.3137,1.2983,1.2988,1.3068,1.3054,1.3158,1.3168,1.3171,1.34,1.344,1.3571,1.3344,1.3983,1.4,1.4016,1.4162,1.4195,1.4224,0,0,0,0,0,1.2527,1.2737,1.2703,1.2746,1.2964,1.3145,1.3173,1.317,1.3079,1.318,1.322,1.3165,1.3532,1.3423,1.3468,1.3605,1.3975,1.3995,1.4015,1.4148,1.4189,1.4223,0,0,0,0,0,0,1.2665,1.2749,1.2712,1.2958,1.3044,1.3127,1.3255,1.3214,1.3331,1.3313,1.3306,1.3331,1.3553,1.3601,1.3478,1.3864,1.3739,1.3769,1.3825,1.3865,1.3895,1.3879,1.3357,0,0,0,0,0,1.2722,1.286,1.2927,1.3137,1.3182,1.3211,1.329,1.3279,1.337,1.3407,1.3463,1.3555,1.369,1.378,1.3909,1.4167,1.4187,1.4284,1.4315,1.434,1.4366,1.4502,1.4544,1.409,1.409,1.409,0,0,1.2846,1.2908,1.2997,1.3166,1.3232,1.3375,1.3243,1.3402,1.3508,1.3432,1.3636,1.3681,1.3783,1.4019,1.4127,1.4066,1.4495,1.4365,1.4385,1.4398,1.4527,1.457,1.4608,1.4104,1.4101,1.4099,0,0,1.3142,1.3204,1.3383,1.345,1.3549,1.3566,1.3609,1.3697,1.3722,1.3926,1.3871,1.3998,1.4232,1.4305,1.4374,1.4691,1.4644,1.4733,1.4896,1.5029,1.5064,1.5096,1.5207,1.5247,1.4759,1.4759,1.476,0,1.3283,1.3494,1.3482,1.3642,1.3717,1.365,1.3831,1.3898,1.4036,1.409,1.4018,1.4307,1.4372,1.4622,1.4698,1.4757,1.4805,1.4722,1.506,1.5092,1.5121,1.5226,1.5268,1.4769,1.4768,1.4767,1.4766,0,1.3661,1.3808,1.3941,1.407,1.416,1.4331,1.4344,1.4438,1.4417,1.4442,1.4649,1.4723,1.4862,1.4921,1.4906,1.5169,1.5127,1.5059,1.4933,1.5174,1.5273,1.5313,1.4784,1.478,1.4777,1.4775,0,0,1.4054,1.4168,1.4217,1.4272,1.4374,1.4489,1.4655,1.4787,1.4866,1.4962,1.5101,1.5297,1.5232,1.5309,1.5301,1.5418,1.5659,1.5334,1.5336,1.539,1.595,1.6,1.6047,1.5628,1.5636,1.5642,1.594,0,1.4355,1.4642,1.4633,1.4901,1.5035,1.4971,1.5115,1.5193,1.522,1.5338,1.5368,1.5506,1.5411,1.5457,1.5569,1.5606,1.5772,1.5585,1.5757,1.5763,1.5732,1.6099,1.6154,1.6432,1.5979,1.5986,1.599,0,1.4746,1.4849,1.5129,1.5205,1.5262,1.5392,1.5509,1.5623,1.571,1.572,1.5803,1.5775,1.5943,1.5811,1.6042,1.5914,1.5984,1.6012,1.6023,1.6039,1.5891,1.6123,1.6521,1.6562,1.6052,1.6047,1.6042,0,1.5,1.521,1.5403,1.5453,1.5548,1.564,1.5684,1.5762,1.5841,1.5944,1.5995,1.6119,1.6186,1.6282,1.6287,1.6192,1.6519,1.6389,1.6532,1.6532,1.6605,1.66,1.7018,1.6652,1.6651,1.665,1.6649,0,1.5337,1.5511,1.5518,1.5637,1.5828,1.5816,1.6006,1.6042,1.6111,1.6235,1.6189,1.6307,1.6307,1.6427,1.6433,1.6621,1.6653,1.6665,1.6665,1.6669,1.6667,1.6715,1.6695,1.6661,1.6659,1.6657,1.6655,0,1.5655,1.5667,1.5872,1.5943,1.5964,1.6102,1.6163,1.6276,1.6295,1.6454,1.649,1.6522,1.6661,1.6674,1.6838,1.6841,1.7067,1.7047,1.7037,1.7033,1.7175,1.7161,1.7638,1.7698,1.7294,1.7297,1.7301,0,1.5869,1.5999,1.6082,1.616,1.6208,1.6336,1.6413,1.6405,1.6488,1.6593,1.6693,1.6826,1.6932,1.7157,1.7196,1.7319,1.73,1.7458,1.7319,1.7317,1.73,1.7291,1.7303,1.7486,1.749,1.7494,1.7497,0,1.6246,1.6243,1.6356,1.647,1.6562,1.6653,1.6737,1.6804,1.6806,1.6902,1.7041,1.7123,1.7285,1.7418,1.7537,1.7584,1.7541,1.754,1.7579,1.7585,1.7573,1.7578,1.7109,1.753,1.7526,1.7524,1.7522,1.7521,1.6517,1.6628,1.6702,1.6827,1.6888,1.6967,1.7074,1.7104,1.7219,1.7348,1.7337,1.749,1.7569,1.7724,1.7779,1.7899,1.7846,1.7904,1.7918,1.7932,1.7945,1.7554,1.7921,1.792,1.7919,1.7919,1.7918,0,1.689,1.6932,1.7047,1.7163,1.7262,1.7208,1.7297,1.7383,1.7517,1.7593,1.7696,1.7854,1.798,1.8026,1.8149,1.8236,1.8219,1.8269,1.8262,1.8273,1.7987,1.7939,1.828,1.828,1.828,1.828,1.828,1.828,1.7095,1.7279,1.7284,1.7497,1.7539,1.7685,1.774,1.7812,1.7871,1.8048,1.8151,1.8178,1.8242,1.8368,1.8481,1.8491,1.8538,1.8596,1.8598,1.833,1.8294,1.8259,1.8214,1.8606,1.8607,1.8873,1.8875,1.8877]}]]